Regional Weather Roundup
Issued by NWS

Home | Current Version | Previous Version | Text Only | Print | Product List | Glossary On
Versions: 1 2 3 4 5 6 7 8 9 10 11 12 13 14 15 16 17 18 19 20 21 22 23 24 25 26 27 28 29 30 31 32 33 34 35 36 37 38 39 40 41 42 43 44 45 46 47 48 49 50
000
ASUS43 KLSX 020007
RWRMO

WEATHER SUMMARY FOR MISSOURI
NATIONAL WEATHER SERVICE SPRINGFIELD MO
700 PM CDT SUN MAY 01 2016

NOTE: "FAIR" INDICATES FEW OR NO CLOUDS BELOW 12,000 FEET WITH NO
       SIGNIFICANT WEATHER AND/OR OBSTRUCTIONS TO VISIBILITY.
       CURRENT SKY AND/OR WEATHER CONDITIONS ARE NOT AVAILABLE FOR
       CHILLICOTHE AND FARMINGTON.

MOZ001>031-035>038-043-044-053-054-020100-
...NORTHERN AND WESTERN MISSOURI...

CITY           SKY/WX    TMP DP  RH WIND       PRES   REMARKS
KANSAS CTY INT CLOUDY    52  45  77 NW8       30.07R
6HR MIN TEMP:  52; 6HR MAX TEMP:  60; 6HR PCP: TRACE;

KANSAS C DTWN  CLOUDY    56  46  69 N14       30.05S
6HR MIN TEMP:  56; 6HR MAX TEMP:  63; 6HR PCP: TRACE;

LEE`S SUMMIT   CLOUDY    56  46  69 N16       30.05S
6HR MIN TEMP:  54; 6HR MAX TEMP:  62; 6HR PCP: TRACE;

ST JOSEPH      CLOUDY    51  45  79 N9        30.09R
6HR MIN TEMP:  50; 6HR MAX TEMP:  55;

CHILLICOTHE      N/A     53  47  79 VRB5      30.07R
6HR MIN TEMP:  53; 6HR MAX TEMP:  58;

KIRKSVILLE     LGT RAIN  49  46  90 N10       30.04R FOG
6HR MIN TEMP:  49; 6HR MAX TEMP:  54; 6HR PCP:  0.07;


$$
MOZ066>068-077>081-088>096-101>105-020100-
...SOUTHWEST MISSOURI...

CITY           SKY/WX    TMP DP  RH WIND       PRES   REMARKS
SPRINGFIELD    CLOUDY    61  44  53 NW7       30.03R
6HR MIN TEMP:  61; 6HR MAX TEMP:  66;

JOPLIN         MOSUNNY   61  46  57 NW7       30.05S
6HR MIN TEMP:  59; 6HR MAX TEMP:  64;

BRANSON        MOSUNNY   64  46  52 NW9       30.02R

$$
MOZ032>034-039>042-045>050-055>058-069>072-020100-
...CENTRAL MISSOURI...

CITY           SKY/WX    TMP DP  RH WIND       PRES   REMARKS
COLUMBIA       PTSUNNY   61  46  57 W18       29.99R
6HR MIN TEMP:  61; 6HR MAX TEMP:  67;

JEFFERSON CITY MOSUNNY   63  45  51 NW8       29.99R
6HR MIN TEMP:  63; 6HR MAX TEMP:  67;

ROLLA          SUNNY     60  44  55 W10       29.98R
6HR MIN TEMP:  60; 6HR MAX TEMP:  68;

SEDALIA        CLOUDY    60  48  64 NW9       30.03R
6HR MIN TEMP:  60; 6HR MAX TEMP:  65;

WHITEMAN AFB   CLOUDY    58  47  67 NW10      30.02R
WARRENSBURG    CLOUDY    57  46  67 NW10      30.04R
OSAGE BEACH    CLOUDY    63  39  42 W9        30.01R

$$
MOZ051-052-059>065-020100-
...EAST CENTRAL MISSOURI...

CITY           SKY/WX    TMP DP  RH WIND       PRES   REMARKS
ST LOUIS INTL  PTCLDY    68  47  46 NW12G21   29.93R
6HR MIN TEMP:  66; 6HR MAX TEMP:  73;

SPIRIT OF STL  CLEAR     66  47  50 W10       29.93R
6HR MIN TEMP:  66; 6HR MAX TEMP:  74; 6HR PCP:  0.01;

ST CHARLES     CLEAR     66  48  52 NW18G25   29.93R
6HR MIN TEMP:  64; 6HR MAX TEMP:  70;


$$
MOZ072>076-082>087-097>100-106>115-020100-
...SOUTH CENTRAL AND SOUTHEAST MISSOURI...

CITY           SKY/WX    TMP DP  RH WIND       PRES   REMARKS
CAPE GIRARDEAU CLEAR     76  60  57 SW9       29.88R
6HR MIN TEMP:  76; 6HR MAX TEMP:  80;

FARMINGTON     CLEAR     72  48  42 NW9       29.93R
6HR MIN TEMP:  71; 6HR MAX TEMP:  77;

POPLAR BLUFF   CLEAR     76  53  44 W7        29.90S
6HR MIN TEMP:  76; 6HR MAX TEMP:  79;

WEST PLAINS    SUNNY     69  45  41 NW9       29.98R
6HR MIN TEMP:  69; 6HR MAX TEMP:  74;


$$



USA.gov is the U.S. government's official web portal to all federal, state and local government web resources and services.